Regional Weather Roundup
Issued by NWS

Home | Current Version | Previous Version | Graphics & Text | Print | Product List | Glossary Off
Versions: 1 2 3 4 5 6 7 8 9 10 11 12 13 14 15 16 17 18 19 20 21 22 23 24 25 26 27 28 29 30 31 32 33 34 35 36 37 38 39 40 41 42 43 44 45 46 47 48 49 50

000
ASUS43 KMPX 030010
RWRMN
WEATHER ROUNDUP FOR MINNESOTA
NATIONAL WEATHER SERVICE TWIN CITIES/CHANHASSEN MN
700 PM CDT THU JUL 02 2015


NOTE: "FAIR" INDICATES FEW OR NO CLOUDS BELOW 12,000 FEET WITH NO
SIGNIFICANT WEATHER AND/OR OBSTRUCTIONS TO VISIBILITY. N/A MEANS
CURRENT SKY AND/OR WEATHER CONDITIONS ARE NOT AVAILABLE.

MNZ060>063-068>070-030100-
   Twin Cities Metro

CITY           SKY/WX    TMP DP  RH WIND       PRES   REMARKS
TWIN CITIES    PTSUNNY   75  53  46 SW7       29.98S
6HR MIN TEMP:  73; 6HR MAX TEMP:  77;

ST PAUL        MOSUNNY   75  57  53 S5        29.97F
CRYSTAL        MOSUNNY   76  55  48 W10       29.96F
BLAINE         MOSUNNY   77  54  44 SE3       29.97F
LAKEVILLE      MOSUNNY   72  57  60 CALM      29.98F
EDEN PRAIRIE   MOSUNNY   74  54  49 SW3       29.97F
6HR MIN TEMP:  73; 6HR MAX TEMP:  77;

SOUTH ST PAUL  MOSUNNY   74  53  46 S3        29.97F
LAKE ELMO      FAIR      73  59  60 S3        29.99F
$$
MNZ001>005-007-008-013>017-022>024-027-028-030100-
   Northwest Minnesota

CITY           SKY/WX    TMP DP  RH WIND       PRES   REMARKS
BEMIDJI        SUNNY     72  56  57 SW8       29.95R
HALLOCK        MOSUNNY   75  68  78 SW6       29.87R
ROSEAU         MOSUNNY   73  64  73 SW8       29.88F
WARROAD        PTSUNNY   73  64  73 SW8       29.89S
THIEF RVR FALL PTSUNNY   73  59  60 S8        29.91F
CROOKSTON      LGT RAIN  72  63  73 SW8       29.91S
FOSSTON        MOSUNNY   70  54  56 SW6       29.95S
DETROIT LAKES  SUNNY     72  54  53 SW8       29.98S
MOORHEAD       PTSUNNY   73  54  49 S7        29.94F
PARK RAPIDS    SUNNY     74  56  53 SW9       29.96S
MAHNOMEN       FAIR      73  55  53 SW10      29.94F
$$
MNZ006-009>011-018-025>026-030100-
   North Central Minnesota

CITY           SKY/WX    TMP DP  RH WIND       PRES   REMARKS
BAUDETTE       PTSUNNY   72  55  55 SW6       29.89F
FLAG ISLAND    MOSUNNY   72  63  73 SW10      29.86F
INTL FALLS     CLOUDY    72  59  63 W9        29.90S
6HR MIN TEMP:  72; 6HR MAX TEMP:  77;

WASKISH        MOSUNNY   72  61  68 SW8       29.93R
BIG FORK       MOSUNNY   72  59  64 SW6       29.94S
LONGVILLE      SUNNY     73  55  53 SW6       29.95F
GRAND RAPIDS   MOSUNNY   72  55  56 SW5       29.95F
CRANE LAKE     MOSUNNY   72  57  60 S2        29.92F
ORR            PTSUNNY   72  55  56 CALM      29.90F
COOK           MOSUNNY   73  57  56 SW7       29.94S
WALKER         FAIR      72  56  57 SW8       29.95S
$$
MNZ012-019>021-037-030100-
   Northeast Minnesota

CITY           SKY/WX    TMP DP  RH WIND       PRES   REMARKS
DULUTH         MOSUNNY   74  56  53 SW12      29.95F
6HR MIN TEMP:  74; 6HR MAX TEMP:  77;

ELY            MOSUNNY   73  55  53 W8        29.93S
HIBBING        MOSUNNY   74  57  55 W3        29.94F
DULUTH HARBOR  SUNNY     79  61  53 SW9       29.93F
TWO HARBORS    SUNNY     77  63  61 SW7       29.92F
SILVER BAY     MOSUNNY   75  59  57 S8        29.92
GRAND MARAIS     N/A     56  53  90 VRB3      29.90F
G MARAIS ARPRT CLOUDY    64  57  77 S3        29.95F
$$
MNZ029>031-032-039>041-046>048-054>057-064-030100-
   West Central Minnesota

CITY           SKY/WX    TMP DP  RH WIND       PRES   REMARKS
FERGUS FALLS   SUNNY     73  52  46 S7        29.96S
WHEATON        SUNNY     72  52  49 CALM      29.98S
MORRIS         SUNNY     75  50  41 S7        29.96F
ALEXANDRIA     SUNNY     71  49  45 S10       29.99F
ELBOW LAKE     FAIR      72  52  49 S6        29.97S
WADENA         SUNNY     72  54  53 SW8       29.97S
GLENWOOD       SUNNY     72  52  49 S7        29.99F
APPLETON       SUNNY     73  52  46 S5        29.96F
BENSON         SUNNY     73  50  43 S5        29.97F
ORTONVILLE     SUNNY     72  54  53 S3        29.97S
MADISON        MOSUNNY   72  52  49 S7        29.97F
WILLMAR        FAIR      73  50  43 CALM      29.99F
$$
MNZ033>034-036-042>043-049>051-058-059-030100-
   Central Minnesota

CITY           SKY/WX    TMP DP  RH WIND       PRES   REMARKS
ST CLOUD       SUNNY     74  53  48 S6        29.97F
6HR MIN TEMP:  73; 6HR MAX TEMP:  77;

SAUK CENTRE    FAIR      71  54  53 S7        29.98F
PAYNESVILLE    MOSUNNY   70  52  52 SE5       29.98F
AITKIN         SUNNY     73  59  60 S8        29.95S
PINE RIVER       N/A     73  57  56 SW7       29.99F
BRAINERD       SUNNY     74  54  49 SW9       29.96F
STAPLES        SUNNY     72  54  53 S8        29.98R
LONG PRAIRIE   FAIR      70  54  56 S5        29.98F
LITTLE FALLS   SUNNY     73  50  43 SW7       29.97F
LITCHFIELD     MOSUNNY   73  54  49 CALM      29.99F
BUFFALO        MOSUNNY   73  53  50 CALM      29.99F
MAPLE LAKE     MOSUNNY   73  58  59 CALM      29.99F
$$
MNZ037-044-045-052-053-030100-
   East Central Minnesota

CITY           SKY/WX    TMP DP  RH WIND       PRES   REMARKS
PRINCETON      SUNNY     75  55  50 SW3       29.98S
MORA           SUNNY     73  52  46 S5        29.99S
CAMBRIDGE      MOSUNNY   77  57  50 CALM      29.96S
RUSH CITY      SUNNY     74  53  48 S5        29.98F
MOOSE LAKE     SUNNY     72  61  68 SW7       29.95F
HINCKLEY       FAIR      73  55  53 SW5       29.97F
CLOQUET        MOSUNNY   73  55  53 SW7       29.96F
MCGREGOR       SUNNY     73  55  53 SW7       29.96F
$$
MNZ071>073-080-081-089-090-097-098-030100-
   Southwest Minnesota

CITY           SKY/WX    TMP DP  RH WIND       PRES   REMARKS
MONTEVIDEO     MOSUNNY   73  54  49 S6        29.98F
GRANITE FALLS  MOSUNNY   72  52  49 CALM      29.99F
CANBY          MOSUNNY   71  54  55 SE5       29.99F
MARSHALL       PTSUNNY   73  48  40 SE3       29.97F
REDWOOD FALLS  PTSUNNY   74  49  41 SE3       29.98F
OLIVIA         MOSUNNY   72  48  43 S5        29.98F
PIPESTONE      CLOUDY    70  54  56 S5        30.00S
WINDOM         PTSUNNY   72  46  40 CALM      29.99F
WORTHINGTON    CLOUDY    68  48  49 SE5       30.00S
JACKSON        PTSUNNY   72  50  46 S6        30.00F
TRACY          PTSUNNY   72  54  52 CALM      29.99S
SLAYTON        PTSUNNY   69  49  47 CALM      30.01S
$$
MNZ065>067-074>077-082>085-091>093-030100-
   South Central Minnesota

CITY           SKY/WX    TMP DP  RH WIND       PRES   REMARKS
MANKATO        PTSUNNY   73  52  46 CALM      29.98F
NEW ULM        PTSUNNY   72  46  40 CALM      29.98F
ST JAMES       PTSUNNY   73  52  46 S5        29.99S
FAIRMONT       MOSUNNY   72  45  37 S5        29.99S
GLENCOE        PTSUNNY   75  55  49 SE3       29.98S
FARIBAULT      PTSUNNY   73  55  53 CALM      29.99S
OWATONNA       PTSUNNY   72  54  53 CALM      29.99S
WASECA         PTSUNNY   72  55  56 E3        30.00F
ALBERT LEA     MOSUNNY   73  52  46 SE3       29.98F
$$
MNZ078>079-086>088-094>096-030100-
   Southeast Minnesota

CITY           SKY/WX    TMP DP  RH WIND       PRES   REMARKS
ROCHESTER      MOSUNNY   72  53  51 NE3       30.00F
6HR MIN TEMP:  71; 6HR MAX TEMP:  74;

RED WING       MOSUNNY   75  50  41 CALM      29.97S
STANTON        MOSUNNY   73  54  49 CALM      29.97F
DODGE CENTER   MOSUNNY   72  57  60 CALM      30.00S
WINONA         SUNNY     73  55  53 E5        29.98S
AUSTIN         PTSUNNY   73  52  46 CALM      29.98F
PRESTON        MOSUNNY   70  54  57 SE3       30.00S
$$
ABBREVIATIONS USED IN REMARKS
   TC - TEMPERATURES IN CELSIUS
  WCI - WIND CHILL INDEX
   HX - HEAT INDEX
  VSB - VISIBILITY
$$


USA.gov is the U.S. government's official web portal to all federal, state and local government web resources and services.